Year,Month,Day,Hour,Minute,Value (Times are PST for temperature in C)
2019,10,30,00,00,2.10
2019,10,30,00,01,2.10
2019,10,30,00,02,2.10
2019,10,30,00,03,2.10
2019,10,30,00,04,2.10
2019,10,30,00,05,2.00
2019,10,30,00,06,2.00
2019,10,30,00,07,2.00
2019,10,30,00,08,2.00
2019,10,30,00,09,2.00
2019,10,30,00,10,2.00
2019,10,30,00,11,2.00
2019,10,30,00,12,2.00
2019,10,30,00,13,2.00
2019,10,30,00,14,2.00
2019,10,30,00,15,2.00
2019,10,30,00,16,2.00
2019,10,30,00,17,2.00
2019,10,30,00,18,2.00
2019,10,30,00,19,2.00
2019,10,30,00,20,2.00
2019,10,30,00,21,2.00
2019,10,30,00,22,2.00
2019,10,30,00,23,2.00
2019,10,30,00,24,2.00
2019,10,30,00,25,2.00
2019,10,30,00,26,1.90
2019,10,30,00,27,1.90
2019,10,30,00,28,1.90
2019,10,30,00,29,1.90
2019,10,30,00,30,1.90
2019,10,30,00,31,1.90
2019,10,30,00,32,1.90
2019,10,30,00,33,1.80
2019,10,30,00,34,1.80
2019,10,30,00,35,1.80
2019,10,30,00,36,1.80
2019,10,30,00,37,1.80
2019,10,30,00,38,1.80
2019,10,30,00,39,1.80
2019,10,30,00,40,1.80
2019,10,30,00,41,1.80
2019,10,30,00,42,1.80
2019,10,30,00,43,1.80
2019,10,30,00,44,1.80
2019,10,30,00,45,1.80
2019,10,30,00,46,1.80
2019,10,30,00,47,1.80
2019,10,30,00,48,1.80
2019,10,30,00,49,1.80
2019,10,30,00,50,1.80
2019,10,30,00,51,1.80
2019,10,30,00,52,1.80
2019,10,30,00,53,1.80
2019,10,30,00,54,1.80
2019,10,30,00,55,1.80
2019,10,30,00,56,1.80
2019,10,30,00,57,1.80
2019,10,30,00,58,1.80
2019,10,30,00,59,1.80
2019,10,30,01,00,1.80
2019,10,30,01,01,1.70
2019,10,30,01,02,1.70
2019,10,30,01,03,1.70
2019,10,30,01,04,1.70
2019,10,30,01,05,1.70
2019,10,30,01,06,1.70
2019,10,30,01,07,1.70
2019,10,30,01,08,1.70
2019,10,30,01,09,1.60
2019,10,30,01,10,1.70
2019,10,30,01,11,1.70
2019,10,30,01,12,1.60
2019,10,30,01,13,1.70
2019,10,30,01,14,1.70
2019,10,30,01,15,1.70
2019,10,30,01,16,1.70
2019,10,30,01,17,1.70
2019,10,30,01,18,1.70
2019,10,30,01,19,1.70
2019,10,30,01,20,1.70
2019,10,30,01,21,1.60
2019,10,30,01,22,1.60
2019,10,30,01,23,1.60
2019,10,30,01,24,1.60
2019,10,30,01,25,1.60
2019,10,30,01,26,1.60
2019,10,30,01,27,1.60
2019,10,30,01,28,1.60
2019,10,30,01,29,1.50
2019,10,30,01,30,1.50
2019,10,30,01,31,1.50
2019,10,30,01,32,1.50
2019,10,30,01,33,1.50
2019,10,30,01,34,1.50
2019,10,30,01,35,1.50
2019,10,30,01,36,1.50
2019,10,30,01,37,1.50
2019,10,30,01,38,1.50
2019,10,30,01,39,1.50
2019,10,30,01,40,1.50
2019,10,30,01,41,1.50
2019,10,30,01,42,1.50
2019,10,30,01,43,1.50
2019,10,30,01,44,1.50
2019,10,30,01,45,1.50
2019,10,30,01,46,1.50
2019,10,30,01,47,1.50
2019,10,30,01,48,1.50
2019,10,30,01,49,1.50
2019,10,30,01,50,1.50
2019,10,30,01,51,1.40
2019,10,30,01,52,1.40
2019,10,30,01,53,1.40
2019,10,30,01,54,1.40
2019,10,30,01,55,1.40
2019,10,30,01,56,1.40
2019,10,30,01,57,1.40
2019,10,30,01,58,1.40
2019,10,30,01,59,1.40
2019,10,30,02,00,1.40
2019,10,30,02,01,1.40
2019,10,30,02,02,1.40
2019,10,30,02,03,1.40
2019,10,30,02,04,1.40
2019,10,30,02,05,1.40
2019,10,30,02,06,1.40
2019,10,30,02,07,1.40
2019,10,30,02,08,1.40
2019,10,30,02,09,1.40
2019,10,30,02,10,1.40
2019,10,30,02,11,1.40
2019,10,30,02,12,1.40
2019,10,30,02,13,1.40
2019,10,30,02,14,1.40
2019,10,30,02,15,1.40
2019,10,30,02,16,1.40
2019,10,30,02,17,1.40
2019,10,30,02,18,1.40
2019,10,30,02,19,1.40
2019,10,30,02,20,1.40
2019,10,30,02,21,1.40
2019,10,30,02,22,1.40
2019,10,30,02,23,1.40
2019,10,30,02,24,1.40
2019,10,30,02,25,1.40
2019,10,30,02,26,1.40
2019,10,30,02,27,1.40
2019,10,30,02,28,1.40
2019,10,30,02,29,1.40
2019,10,30,02,30,1.40
2019,10,30,02,31,1.40
2019,10,30,02,32,1.40
2019,10,30,02,33,1.40
2019,10,30,02,34,1.40
2019,10,30,02,35,1.40
2019,10,30,02,36,1.40
2019,10,30,08,49,2.70
2019,10,30,08,50,2.70
2019,10,30,08,51,2.80
2019,10,30,08,52,2.80
2019,10,30,08,53,2.80
2019,10,30,08,54,2.90
2019,10,30,08,55,2.90
2019,10,30,08,56,2.90
2019,10,30,08,57,3.00
2019,10,30,08,58,3.10
2019,10,30,08,59,3.20
2019,10,30,09,00,3.20
2019,10,30,09,01,3.30
2019,10,30,09,02,3.40
2019,10,30,09,03,3.40
2019,10,30,09,04,3.50
2019,10,30,09,05,3.60
2019,10,30,09,06,3.60
2019,10,30,09,07,3.70
2019,10,30,09,08,3.70
2019,10,30,09,09,3.80
2019,10,30,09,10,3.80
2019,10,30,09,11,3.90
2019,10,30,09,12,4.00
2019,10,30,09,13,4.00
2019,10,30,09,14,4.10
2019,10,30,09,15,4.10
2019,10,30,09,16,4.20
2019,10,30,09,17,4.20
2019,10,30,09,18,4.30
2019,10,30,09,19,4.30
2019,10,30,09,20,4.30
2019,10,30,09,21,4.40
2019,10,30,09,22,4.40
2019,10,30,09,23,4.50
2019,10,30,09,24,4.50
2019,10,30,09,25,4.50
2019,10,30,09,26,4.60
2019,10,30,09,27,4.60
2019,10,30,09,28,4.70
2019,10,30,09,29,4.70
2019,10,30,09,30,4.70
2019,10,30,09,31,4.70
2019,10,30,09,32,4.80
2019,10,30,09,33,4.80
2019,10,30,09,34,4.80
2019,10,30,09,35,4.90
2019,10,30,09,36,4.90
2019,10,30,09,37,4.90
2019,10,30,09,38,5.00
2019,10,30,09,39,5.00
2019,10,30,09,40,5.10
2019,10,30,09,41,5.10
2019,10,30,09,42,5.10
2019,10,30,09,43,5.20
2019,10,30,09,44,5.20
2019,10,30,09,45,5.20
2019,10,30,09,46,5.30
2019,10,30,09,47,5.30
2019,10,30,09,48,5.30
2019,10,30,09,49,5.40
2019,10,30,09,50,5.40
2019,10,30,09,51,5.50
2019,10,30,09,52,5.60
2019,10,30,09,53,5.60
2019,10,30,09,54,5.70
2019,10,30,09,55,5.80
2019,10,30,09,56,5.80
2019,10,30,09,57,5.90
2019,10,30,09,58,5.90
2019,10,30,09,59,6.00
2019,10,30,10,00,6.00
2019,10,30,10,01,6.10
2019,10,30,10,02,6.20
2019,10,30,10,03,6.20
2019,10,30,10,04,6.30
2019,10,30,10,05,6.30
2019,10,30,10,06,6.40
2019,10,30,10,07,6.40
2019,10,30,10,08,6.50
2019,10,30,10,09,6.50
2019,10,30,10,10,6.60
2019,10,30,10,11,6.70
2019,10,30,10,12,6.70
2019,10,30,10,13,6.70
2019,10,30,10,14,6.70
2019,10,30,10,15,6.80
2019,10,30,10,16,6.80
2019,10,30,10,17,6.80
2019,10,30,10,18,6.80
2019,10,30,10,19,6.90
2019,10,30,10,20,6.90
2019,10,30,10,21,6.90
2019,10,30,10,22,6.90
2019,10,30,10,23,6.90
2019,10,30,10,24,6.90
2019,10,30,10,25,6.90
2019,10,30,10,26,6.90
2019,10,30,10,27,6.90
2019,10,30,10,28,6.80
2019,10,30,10,29,6.80
2019,10,30,10,30,6.80
2019,10,30,10,31,6.70
2019,10,30,10,32,6.70
2019,10,30,10,33,6.70
2019,10,30,10,34,6.70
2019,10,30,10,35,6.70
2019,10,30,10,36,6.70
2019,10,30,10,37,6.70
2019,10,30,10,38,6.80
2019,10,30,10,39,6.80
2019,10,30,10,40,6.80
2019,10,30,10,41,6.90
2019,10,30,10,42,6.90
2019,10,30,10,43,6.90
2019,10,30,10,44,7.00
2019,10,30,10,45,7.00
2019,10,30,10,46,7.00
2019,10,30,10,47,7.10
2019,10,30,10,48,7.10
2019,10,30,10,49,7.10
2019,10,30,10,50,7.10
2019,10,30,10,51,7.10
2019,10,30,10,52,7.10
2019,10,30,10,53,7.10
2019,10,30,10,54,7.10
2019,10,30,10,55,7.10
2019,10,30,10,56,7.00
2019,10,30,10,57,7.00
2019,10,30,10,58,7.00
2019,10,30,10,59,7.00
2019,10,30,11,00,7.00
2019,10,30,11,01,7.00
2019,10,30,11,02,7.10
2019,10,30,11,03,7.10
2019,10,30,11,04,7.10
2019,10,30,11,05,7.10
2019,10,30,11,06,7.10
2019,10,30,11,07,7.10
2019,10,30,11,08,7.10
2019,10,30,11,09,7.10
2019,10,30,11,10,7.10
2019,10,30,11,11,7.10
2019,10,30,11,12,7.10
2019,10,30,11,13,7.10
2019,10,30,11,14,7.10
2019,10,30,11,15,7.10
2019,10,30,11,16,7.10
2019,10,30,11,17,7.20
2019,10,30,11,18,7.20
2019,10,30,11,19,7.20
2019,10,30,11,20,7.30
2019,10,30,11,21,7.30
2019,10,30,11,22,7.40
2019,10,30,11,23,7.40
2019,10,30,11,24,7.40
2019,10,30,11,25,7.40
2019,10,30,11,26,7.50
2019,10,30,11,27,7.50
2019,10,30,11,28,7.60
2019,10,30,11,29,7.60
2019,10,30,11,30,7.60
2019,10,30,11,31,7.60
2019,10,30,11,32,7.60
2019,10,30,11,33,7.60
2019,10,30,11,34,7.60
2019,10,30,11,35,7.60
2019,10,30,11,36,7.70
2019,10,30,11,37,7.70
2019,10,30,11,38,7.70
2019,10,30,11,39,7.70
2019,10,30,11,40,7.70
2019,10,30,11,41,7.70
2019,10,30,11,42,7.80
2019,10,30,11,43,7.80
2019,10,30,11,44,7.80
2019,10,30,11,45,7.80
2019,10,30,11,46,7.80
2019,10,30,11,47,7.80
2019,10,30,11,48,7.90
2019,10,30,11,49,7.90
2019,10,30,11,50,7.90
2019,10,30,11,51,7.90
2019,10,30,11,52,7.90
2019,10,30,11,53,7.90
2019,10,30,11,54,7.90
2019,10,30,11,55,7.90
2019,10,30,11,56,7.90
2019,10,30,11,57,7.90
2019,10,30,11,58,7.90
2019,10,30,11,59,7.90
2019,10,30,12,00,8.00
2019,10,30,12,01,8.00
2019,10,30,12,02,8.00
2019,10,30,12,03,8.10
2019,10,30,12,04,8.10
2019,10,30,12,05,8.10
2019,10,30,12,06,8.10
2019,10,30,12,07,8.10
2019,10,30,12,08,8.20
2019,10,30,12,09,8.20
2019,10,30,12,10,8.30
2019,10,30,12,11,8.30
2019,10,30,12,12,8.40
2019,10,30,12,13,8.40
2019,10,30,12,14,8.50
2019,10,30,12,15,8.50
2019,10,30,12,16,8.50
2019,10,30,12,17,8.50
2019,10,30,12,18,8.50
2019,10,30,12,19,8.50
2019,10,30,12,20,8.40
2019,10,30,12,21,8.40
2019,10,30,12,22,8.40
2019,10,30,12,23,8.40
2019,10,30,12,24,8.40
2019,10,30,12,25,8.40
2019,10,30,12,26,8.40
2019,10,30,12,27,8.30
2019,10,30,12,28,8.40
2019,10,30,12,29,8.40
2019,10,30,12,30,8.40
2019,10,30,12,31,8.50
2019,10,30,12,32,8.50
2019,10,30,12,33,8.60
2019,10,30,12,34,8.60
2019,10,30,12,35,8.60
2019,10,30,12,36,8.70
2019,10,30,12,37,8.70
2019,10,30,12,38,8.70
2019,10,30,12,39,8.70
2019,10,30,12,40,8.80
2019,10,30,12,41,8.80
2019,10,30,12,42,8.70
2019,10,30,12,43,8.70
2019,10,30,12,44,8.70
2019,10,30,12,45,8.80
2019,10,30,12,46,8.80
2019,10,30,12,47,8.80
2019,10,30,12,48,8.80
2019,10,30,12,49,8.80
2019,10,30,12,50,8.80
2019,10,30,12,51,8.80
2019,10,30,12,52,8.80
2019,10,30,12,53,8.80
2019,10,30,12,54,8.80
2019,10,30,12,55,8.80
2019,10,30,12,56,8.80
2019,10,30,12,57,8.80
2019,10,30,12,58,8.80
2019,10,30,12,59,8.80
2019,10,30,13,00,8.80
2019,10,30,13,01,8.80
2019,10,30,13,02,8.80
2019,10,30,13,03,8.80
2019,10,30,13,04,8.80
2019,10,30,13,05,8.80
2019,10,30,13,06,8.80
2019,10,30,13,07,8.80
2019,10,30,13,08,8.80
2019,10,30,13,09,8.80
2019,10,30,13,10,8.80
2019,10,30,13,11,8.80
2019,10,30,13,12,8.80
2019,10,30,13,13,8.80
2019,10,30,13,14,8.80
2019,10,30,13,15,8.80
2019,10,30,13,16,8.80
2019,10,30,13,17,8.80
2019,10,30,13,18,8.80
2019,10,30,13,19,8.80
2019,10,30,13,20,8.80
2019,10,30,13,21,8.80
2019,10,30,13,22,8.80
2019,10,30,13,23,8.80
2019,10,30,13,24,8.80
2019,10,30,13,25,8.80
2019,10,30,13,26,8.80
2019,10,30,13,27,8.80
2019,10,30,13,28,8.80
2019,10,30,13,29,8.80
2019,10,30,13,30,8.90
2019,10,30,13,31,8.90
2019,10,30,13,32,8.90
2019,10,30,13,33,8.90
2019,10,30,13,34,8.90
2019,10,30,13,35,8.90
2019,10,30,13,36,8.90
2019,10,30,13,37,8.80
2019,10,30,13,38,8.80
2019,10,30,13,39,8.80
2019,10,30,13,40,8.80
2019,10,30,13,41,8.70
2019,10,30,13,42,8.70
2019,10,30,13,43,8.80
2019,10,30,13,44,8.80
2019,10,30,13,45,8.80
2019,10,30,13,46,8.80
2019,10,30,13,47,8.90
2019,10,30,13,48,8.90
2019,10,30,13,49,9.00
2019,10,30,13,50,9.00
2019,10,30,13,51,9.00
2019,10,30,13,52,9.10
2019,10,30,13,53,9.00
2019,10,30,13,54,9.00
2019,10,30,13,55,9.00
2019,10,30,13,56,9.00
2019,10,30,13,57,9.00
2019,10,30,13,58,9.00
2019,10,30,13,59,9.00
2019,10,30,14,00,9.00
2019,10,30,14,01,9.00
2019,10,30,14,02,9.00
2019,10,30,14,03,9.00
2019,10,30,14,04,9.00
2019,10,30,14,05,9.00
2019,10,30,14,06,9.10
2019,10,30,14,07,9.10
2019,10,30,14,08,9.00
2019,10,30,14,09,9.00
2019,10,30,14,10,9.00
2019,10,30,14,11,9.10
2019,10,30,14,12,9.10
2019,10,30,14,13,9.10
2019,10,30,14,14,9.10
2019,10,30,14,15,9.10
2019,10,30,14,16,9.10
2019,10,30,14,17,9.10
2019,10,30,14,18,9.20
2019,10,30,14,19,9.20
2019,10,30,14,20,9.30
2019,10,30,14,21,9.30
2019,10,30,14,22,9.40
2019,10,30,14,23,9.40
2019,10,30,14,24,9.50
2019,10,30,14,25,9.50
2019,10,30,14,26,9.50
2019,10,30,14,27,9.50
2019,10,30,14,28,9.50
2019,10,30,14,29,9.50
2019,10,30,14,30,9.50
2019,10,30,14,31,9.50
2019,10,30,14,32,9.50
2019,10,30,14,33,9.50
2019,10,30,14,34,9.50
2019,10,30,14,35,9.50
2019,10,30,14,36,9.50
2019,10,30,14,37,9.50
2019,10,30,14,38,9.50
2019,10,30,14,39,9.50
2019,10,30,14,40,9.50
2019,10,30,14,41,9.50
2019,10,30,14,42,9.60
2019,10,30,14,43,9.60
2019,10,30,14,44,9.60
2019,10,30,14,45,9.60
2019,10,30,14,46,9.60
2019,10,30,14,47,9.60
2019,10,30,14,48,9.60
2019,10,30,14,49,9.70
2019,10,30,14,50,9.70
2019,10,30,14,51,9.70
2019,10,30,14,52,9.70
2019,10,30,14,53,9.70
2019,10,30,14,54,9.70
2019,10,30,14,55,9.60
2019,10,30,14,56,9.60
2019,10,30,14,57,9.60
2019,10,30,14,58,9.50
2019,10,30,14,59,9.50
2019,10,30,15,00,9.50
2019,10,30,15,01,9.50
2019,10,30,15,02,9.50
2019,10,30,15,03,9.50
2019,10,30,15,04,9.60
2019,10,30,15,05,9.60
2019,10,30,15,06,9.60
2019,10,30,15,07,9.60
2019,10,30,15,08,9.70
2019,10,30,15,09,9.70
2019,10,30,15,10,9.70
2019,10,30,15,11,9.70
2019,10,30,15,12,9.70
2019,10,30,15,13,9.70
2019,10,30,15,14,9.70
2019,10,30,15,15,9.70
2019,10,30,15,16,9.70
2019,10,30,15,17,9.70
2019,10,30,15,18,9.60
2019,10,30,15,19,9.60
2019,10,30,15,20,9.60
2019,10,30,15,21,9.50
2019,10,30,15,22,9.50
2019,10,30,15,23,9.50
2019,10,30,15,24,9.50
2019,10,30,15,25,9.50
2019,10,30,15,26,9.50
2019,10,30,15,27,9.50
2019,10,30,15,28,9.50
2019,10,30,15,29,9.50
2019,10,30,15,30,9.50
2019,10,30,15,31,9.50
2019,10,30,15,32,9.50
2019,10,30,15,33,9.60
2019,10,30,15,34,9.50
2019,10,30,15,35,9.50
2019,10,30,15,36,9.50
2019,10,30,15,37,9.50
2019,10,30,15,38,9.50
2019,10,30,15,39,9.50
2019,10,30,15,40,9.50
2019,10,30,15,41,9.60
2019,10,30,15,42,9.60
2019,10,30,15,43,9.60
2019,10,30,15,44,9.60
2019,10,30,15,45,9.60
2019,10,30,15,46,9.60
2019,10,30,15,47,9.60
2019,10,30,15,48,9.60
2019,10,30,15,49,9.60
2019,10,30,15,50,9.60
2019,10,30,15,51,9.60
2019,10,30,15,52,9.60
2019,10,30,15,53,9.60
2019,10,30,15,54,9.60
2019,10,30,15,55,9.60
2019,10,30,15,56,9.60
2019,10,30,15,57,9.60
2019,10,30,15,58,9.60
2019,10,30,15,59,9.60
2019,10,30,16,00,9.60
2019,10,30,16,01,9.60
2019,10,30,16,02,9.70
2019,10,30,16,03,9.70
2019,10,30,16,04,9.70
2019,10,30,16,05,9.70
2019,10,30,16,06,9.70
2019,10,30,16,07,9.70
2019,10,30,16,08,9.70
2019,10,30,16,09,9.80
2019,10,30,16,10,9.80
2019,10,30,16,11,9.80
2019,10,30,16,12,9.80
2019,10,30,16,13,9.80
2019,10,30,16,14,9.80
2019,10,30,16,15,9.80
2019,10,30,16,16,9.70
2019,10,30,16,17,9.70
2019,10,30,16,18,9.70
2019,10,30,16,19,9.70
2019,10,30,16,20,9.60
2019,10,30,16,21,9.60
2019,10,30,16,22,9.60
2019,10,30,16,23,9.60
2019,10,30,16,24,9.60
2019,10,30,16,25,9.60
2019,10,30,16,26,9.50
2019,10,30,16,27,9.50
2019,10,30,16,28,9.50
2019,10,30,16,29,9.50
2019,10,30,16,30,9.50
2019,10,30,16,31,9.50
2019,10,30,16,32,9.50
2019,10,30,16,33,9.50
2019,10,30,16,34,9.50
2019,10,30,16,35,9.50
2019,10,30,16,36,9.60
2019,10,30,16,37,9.60
2019,10,30,16,38,9.60
2019,10,30,16,39,9.60
2019,10,30,16,40,9.60
2019,10,30,16,41,9.60
2019,10,30,16,42,9.50
2019,10,30,16,43,9.50
2019,10,30,16,44,9.50
2019,10,30,16,45,9.50
2019,10,30,16,46,9.50
2019,10,30,16,47,9.40
2019,10,30,16,48,9.40
2019,10,30,16,49,9.40
2019,10,30,16,50,9.40
2019,10,30,16,51,9.40
2019,10,30,16,52,9.40
2019,10,30,16,53,9.40
2019,10,30,16,54,9.40
2019,10,30,16,55,9.40
2019,10,30,16,56,9.40
2019,10,30,16,57,9.40
2019,10,30,16,58,9.40
2019,10,30,16,59,9.40
2019,10,30,17,00,9.40
2019,10,30,17,01,9.40
2019,10,30,17,02,9.40
2019,10,30,17,03,9.40
2019,10,30,17,04,9.40
2019,10,30,17,05,9.40
2019,10,30,17,06,9.50
2019,10,30,17,07,9.50
2019,10,30,17,08,9.50
2019,10,30,17,09,9.50
2019,10,30,17,10,9.50
2019,10,30,17,11,9.50
2019,10,30,17,12,9.50
2019,10,30,17,13,9.50
2019,10,30,17,14,9.50
2019,10,30,17,15,9.50
2019,10,30,17,16,9.40
2019,10,30,17,17,9.40
2019,10,30,17,18,9.40
2019,10,30,17,19,9.30
2019,10,30,17,20,9.30
2019,10,30,17,21,9.30
2019,10,30,17,22,9.30
2019,10,30,17,23,9.20
2019,10,30,17,24,9.20
2019,10,30,17,25,9.20
2019,10,30,17,26,9.20
2019,10,30,17,27,9.20
2019,10,30,17,28,9.10
2019,10,30,17,29,9.10
2019,10,30,17,30,9.10
2019,10,30,17,31,9.10
2019,10,30,17,32,9.10
2019,10,30,17,33,9.10
2019,10,30,17,34,9.00
2019,10,30,17,35,9.00
2019,10,30,17,36,9.00
2019,10,30,17,37,9.00
2019,10,30,17,38,8.90
2019,10,30,17,39,8.90
2019,10,30,17,40,8.90
2019,10,30,17,41,8.90
2019,10,30,17,42,8.90
2019,10,30,17,43,8.80
2019,10,30,17,44,8.80
2019,10,30,17,45,8.80
2019,10,30,17,46,8.80
2019,10,30,17,47,8.80
2019,10,30,17,48,8.80
2019,10,30,17,49,8.70
2019,10,30,17,50,8.70
2019,10,30,17,51,8.70
2019,10,30,17,52,8.70
2019,10,30,17,53,8.60
2019,10,30,17,54,8.60
2019,10,30,17,55,8.60
2019,10,30,17,56,8.50
2019,10,30,17,57,8.50
2019,10,30,17,58,8.40
2019,10,30,17,59,8.40
2019,10,30,18,00,8.40
2019,10,30,18,01,8.30
2019,10,30,18,02,8.30
2019,10,30,18,03,8.30
2019,10,30,18,04,8.30
2019,10,30,18,05,8.20
2019,10,30,18,06,8.20
2019,10,30,18,07,8.20
2019,10,30,18,08,8.10
2019,10,30,18,09,8.10
2019,10,30,18,10,8.10
2019,10,30,18,11,8.00
2019,10,30,18,12,8.00
2019,10,30,18,13,8.00
2019,10,30,18,14,7.90
2019,10,30,18,15,7.90
2019,10,30,18,16,7.90
2019,10,30,18,17,7.80
2019,10,30,18,18,7.80
2019,10,30,18,19,7.80
2019,10,30,18,20,7.80
2019,10,30,18,21,7.70
2019,10,30,18,22,7.70
2019,10,30,18,23,7.70
2019,10,30,18,24,7.70
2019,10,30,18,25,7.60
2019,10,30,18,26,7.60
2019,10,30,18,27,7.60
2019,10,30,18,28,7.60
2019,10,30,18,29,7.50
2019,10,30,18,30,7.50
2019,10,30,18,31,7.40
2019,10,30,18,32,7.40
2019,10,30,18,33,7.30
2019,10,30,18,34,7.30
2019,10,30,18,35,7.30
2019,10,30,18,36,7.20
2019,10,30,18,37,7.20
2019,10,30,18,38,7.20
2019,10,30,18,39,7.10
2019,10,30,18,40,7.10
2019,10,30,18,41,7.10
2019,10,30,18,42,7.10
2019,10,30,18,43,7.10
2019,10,30,18,44,7.10
2019,10,30,18,45,7.00
2019,10,30,18,46,7.00
2019,10,30,18,47,7.00
2019,10,30,18,48,7.00
2019,10,30,18,49,6.90
2019,10,30,18,50,6.90
2019,10,30,18,51,6.90
2019,10,30,18,52,6.90
2019,10,30,18,53,6.90
2019,10,30,18,54,6.80
2019,10,30,18,55,6.80
2019,10,30,18,56,6.80
2019,10,30,18,57,6.80
2019,10,30,18,58,6.80
2019,10,30,18,59,6.80
2019,10,30,19,00,6.80
2019,10,30,19,01,6.70
2019,10,30,19,02,6.70
2019,10,30,19,03,6.70
2019,10,30,19,04,6.70
2019,10,30,19,05,6.70
2019,10,30,19,06,6.60
2019,10,30,19,07,6.60
2019,10,30,19,08,6.60
2019,10,30,19,09,6.60
2019,10,30,19,10,6.60
2019,10,30,19,11,6.50
2019,10,30,19,12,6.50
2019,10,30,19,13,6.50
2019,10,30,19,14,6.50
2019,10,30,19,15,6.50
2019,10,30,19,16,6.40
2019,10,30,19,17,6.40
2019,10,30,19,18,6.40
2019,10,30,19,19,6.40
2019,10,30,19,20,6.40
2019,10,30,19,21,6.40
2019,10,30,19,22,6.40
2019,10,30,19,23,6.40
2019,10,30,19,24,6.30
2019,10,30,19,25,6.30
2019,10,30,19,26,6.30
2019,10,30,19,27,6.30
2019,10,30,19,28,6.30
2019,10,30,19,29,6.20
2019,10,30,19,30,6.20
2019,10,30,19,31,6.20
2019,10,30,19,32,6.20
2019,10,30,19,33,6.20
2019,10,30,19,34,6.20
2019,10,30,19,35,6.10
2019,10,30,19,36,6.10
2019,10,30,19,37,6.10
2019,10,30,19,38,6.10
2019,10,30,19,39,6.10
2019,10,30,19,40,6.10
2019,10,30,19,41,6.00
2019,10,30,19,42,6.00
2019,10,30,19,43,6.00
2019,10,30,19,44,6.00
2019,10,30,19,45,5.90
2019,10,30,19,46,5.90
2019,10,30,19,47,5.90
2019,10,30,19,48,5.90
2019,10,30,19,49,5.90
2019,10,30,19,50,5.90
2019,10,30,19,51,5.90
2019,10,30,19,52,5.80
2019,10,30,19,53,5.80
2019,10,30,19,54,5.80
2019,10,30,19,55,5.80
2019,10,30,19,56,5.80
2019,10,30,19,57,5.80
2019,10,30,19,58,5.80
2019,10,30,19,59,5.70
2019,10,30,20,00,5.70
2019,10,30,20,01,5.70
2019,10,30,20,02,5.70
2019,10,30,20,03,5.70
2019,10,30,20,04,5.70
2019,10,30,20,05,5.70
2019,10,30,20,06,5.70
2019,10,30,20,07,5.70
2019,10,30,20,08,5.70
2019,10,30,20,09,5.60
2019,10,30,20,10,5.60
2019,10,30,20,11,5.60
2019,10,30,20,12,5.60
2019,10,30,20,13,5.60
2019,10,30,20,14,5.60
2019,10,30,20,15,5.50
2019,10,30,20,16,5.50
2019,10,30,20,17,5.50
2019,10,30,20,18,5.40
2019,10,30,20,19,5.40
2019,10,30,20,20,5.40
2019,10,30,20,21,5.40
2019,10,30,20,22,5.40
2019,10,30,20,23,5.40
2019,10,30,20,24,5.40
2019,10,30,20,25,5.40
2019,10,30,20,26,5.40
2019,10,30,20,27,5.40
2019,10,30,20,28,5.40
2019,10,30,20,29,5.30
2019,10,30,20,30,5.30
2019,10,30,20,31,5.30
2019,10,30,20,32,5.30
2019,10,30,20,33,5.30
2019,10,30,20,34,5.30
2019,10,30,20,35,5.30
2019,10,30,20,36,5.30
2019,10,30,20,37,5.30
2019,10,30,20,38,5.30
2019,10,30,20,39,5.30
2019,10,30,20,40,5.20
2019,10,30,20,41,5.20
2019,10,30,20,42,5.20
2019,10,30,20,43,5.20
2019,10,30,20,44,5.20
2019,10,30,20,45,5.20
2019,10,30,20,46,5.20
2019,10,30,20,47,5.10
2019,10,30,20,48,5.10
2019,10,30,20,49,5.10
2019,10,30,20,50,5.10
2019,10,30,20,51,5.10
2019,10,30,20,52,5.10
2019,10,30,20,53,5.10
2019,10,30,20,54,5.00
2019,10,30,20,55,5.00
2019,10,30,20,56,5.00
2019,10,30,20,57,5.00
2019,10,30,20,58,5.00
2019,10,30,20,59,5.00
2019,10,30,21,00,5.00
2019,10,30,21,01,5.00
2019,10,30,21,02,4.90
2019,10,30,21,03,4.90
2019,10,30,21,04,4.90
2019,10,30,21,05,4.90
2019,10,30,21,06,4.90
2019,10,30,21,07,4.90
2019,10,30,21,08,4.90
2019,10,30,21,09,4.90
2019,10,30,21,10,4.90
2019,10,30,21,11,4.80
2019,10,30,21,12,4.80
2019,10,30,21,13,4.80
2019,10,30,21,14,4.80
2019,10,30,21,15,4.80
2019,10,30,21,16,4.80
2019,10,30,21,17,4.80
2019,10,30,21,18,4.80
2019,10,30,21,19,4.80
2019,10,30,21,20,4.80
2019,10,30,21,21,4.70
2019,10,30,21,22,4.70
2019,10,30,21,23,4.70
2019,10,30,21,24,4.70
2019,10,30,21,25,4.70
2019,10,30,21,26,4.70
2019,10,30,21,27,4.70
2019,10,30,21,28,4.70
2019,10,30,21,29,4.70
2019,10,30,21,30,4.70
2019,10,30,21,31,4.70
2019,10,30,21,32,4.70
2019,10,30,21,33,4.70
2019,10,30,21,34,4.70
2019,10,30,21,35,4.70
2019,10,30,21,36,4.70
2019,10,30,21,37,4.70
2019,10,30,21,38,4.70
2019,10,30,21,39,4.70
2019,10,30,21,40,4.70
2019,10,30,21,41,4.60
2019,10,30,21,42,4.60
2019,10,30,21,43,4.60
2019,10,30,21,44,4.60
2019,10,30,21,45,4.60
2019,10,30,21,46,4.60
2019,10,30,21,47,4.60
2019,10,30,21,48,4.60
2019,10,30,21,49,4.60
2019,10,30,21,50,4.60
2019,10,30,21,51,4.50
2019,10,30,21,52,4.50
2019,10,30,21,53,4.50
2019,10,30,21,54,4.50
2019,10,30,21,55,4.40
2019,10,30,21,56,4.40
2019,10,30,21,57,4.40
2019,10,30,21,58,4.40
2019,10,30,21,59,4.40
2019,10,30,22,00,4.30
2019,10,30,22,01,4.30
2019,10,30,22,02,4.30
2019,10,30,22,03,4.30
2019,10,30,22,04,4.30
2019,10,30,22,05,4.30
2019,10,30,22,06,4.20
2019,10,30,22,07,4.20
2019,10,30,22,08,4.20
2019,10,30,22,09,4.20
2019,10,30,22,10,4.20
2019,10,30,22,11,4.20
2019,10,30,22,12,4.20
2019,10,30,22,13,4.20
2019,10,30,22,14,4.20
2019,10,30,22,15,4.20
2019,10,30,22,16,4.20
2019,10,30,22,17,4.20
2019,10,30,22,18,4.20
2019,10,30,22,19,4.20
2019,10,30,22,20,4.20
2019,10,30,22,21,4.20
2019,10,30,22,22,4.20
2019,10,30,22,23,4.20
2019,10,30,22,24,4.20
2019,10,30,22,25,4.20
2019,10,30,22,26,4.20
2019,10,30,22,27,4.20
2019,10,30,22,28,4.20
2019,10,30,22,29,4.20
2019,10,30,22,30,4.20
2019,10,30,22,31,4.20
2019,10,30,22,32,4.20
2019,10,30,22,33,4.20
2019,10,30,22,34,4.20
2019,10,30,22,35,4.10
2019,10,30,22,36,4.10
2019,10,30,22,37,4.10
2019,10,30,22,38,4.10
2019,10,30,22,39,4.10
2019,10,30,22,40,4.10
2019,10,30,22,41,4.10
2019,10,30,22,42,4.10
2019,10,30,22,43,4.00
2019,10,30,22,44,4.00
2019,10,30,22,45,4.00
2019,10,30,22,46,4.00
2019,10,30,22,47,3.90
2019,10,30,22,48,3.90
2019,10,30,22,49,3.90
2019,10,30,22,50,3.90
2019,10,30,22,51,3.90
2019,10,30,22,52,3.90
2019,10,30,22,53,3.80
2019,10,30,22,54,3.80
2019,10,30,22,55,3.80
2019,10,30,22,56,3.80
2019,10,30,22,57,3.80
2019,10,30,22,58,3.80
2019,10,30,22,59,3.70
2019,10,30,23,00,3.70
2019,10,30,23,01,3.70
2019,10,30,23,02,3.70
2019,10,30,23,03,3.70
2019,10,30,23,04,3.70
2019,10,30,23,05,3.70
2019,10,30,23,06,3.70
2019,10,30,23,07,3.70
2019,10,30,23,08,3.60
2019,10,30,23,09,3.60
2019,10,30,23,10,3.60
2019,10,30,23,11,3.60
2019,10,30,23,12,3.60
2019,10,30,23,13,3.60
2019,10,30,23,14,3.50
2019,10,30,23,15,3.50
2019,10,30,23,16,3.50
2019,10,30,23,17,3.50
2019,10,30,23,18,3.50
2019,10,30,23,19,3.50
2019,10,30,23,20,3.50
2019,10,30,23,21,3.40
2019,10,30,23,22,3.40
2019,10,30,23,23,3.40
2019,10,30,23,24,3.40
2019,10,30,23,25,3.40
2019,10,30,23,26,3.40
2019,10,30,23,27,3.40
2019,10,30,23,28,3.40
2019,10,30,23,29,3.40
2019,10,30,23,30,3.40
2019,10,30,23,31,3.30
2019,10,30,23,32,3.30
2019,10,30,23,33,3.30
2019,10,30,23,34,3.30
2019,10,30,23,35,3.30
2019,10,30,23,36,3.30
2019,10,30,23,37,3.30
2019,10,30,23,38,3.30
2019,10,30,23,39,3.30
2019,10,30,23,40,3.20
2019,10,30,23,41,3.20
2019,10,30,23,42,3.20
2019,10,30,23,43,3.20
2019,10,30,23,44,3.20
2019,10,30,23,45,3.20
2019,10,30,23,46,3.20
2019,10,30,23,47,3.20
2019,10,30,23,48,3.20
2019,10,30,23,49,3.20
2019,10,30,23,50,3.20
2019,10,30,23,51,3.20
2019,10,30,23,52,3.20
2019,10,30,23,53,3.20
2019,10,30,23,54,3.20
2019,10,30,23,55,3.20
2019,10,30,23,56,3.20
2019,10,30,23,57,3.20
2019,10,30,23,58,3.20
2019,10,30,23,59,3.20
